Powrót do katalogu

STARLINK-5768

AktywnyŁącznośćVLEO
NORAD 57145·PAYLOAD·🇺🇸 United States

Wystrzelony Jun 23, 2023 z Cape Canaveral Space Force Station

Loading…

Następne Przeloty (najbliższe 24 godziny)

TLE

ŚwieżeSource: CelesTrak SupGP

Epoka: Sep 14, 2026, 14:12 UTC

1 57145C 23090AW  26257.59215278  .00008405  00000+0  30435-3 0  2578
2 57145  42.9995 276.6625 0001556 270.3727  25.3906 15.27581554    10

Śledź STARLINK-5768 w czasie rzeczywistym z AllMySat

Download on the App Store